Погода в Чембилее

Россия / Нижегородская область     55°19′49″N   45°43′50″E
темп.,
°C
ветер,
м/с
пор.,
м/с
влажн.,
%
обл.,
%
осадки,
мм/ч
давл.,
гПа
погр.,
м
14 августа, вс
вс1400:00+17всв227297 0.0 102224
03:00+15всв227866 0.0 102214
06:00+17всв237521 0.0 102387
09:00+22всв3453100 0.0 1022544
12:00+25всв454151 0.0 10221407
15:00+26всв443971 0.0 10211753
18:00+23всв4752100 0.0 1021240
21:00+18вюв3665100 0.0 102292
15 августа, пн
пн1500:00+17юв2365100 0.0 102244
03:00+16юв226388 0.0 102312
06:00+17вюв226294 0.0 102461
09:00+22юв234589 0.0 1024493
12:00+25в234254 0.0 10241483
15:00+26всв33423 0.0 10231846
18:00+24св34522 0.0 1023123
21:00+19всв33743 0.0 102446
16 августа, вт
вт1600:00+17всв22790 0.0 102425
03:00+16всв22830 0.0 102515
06:00+16всв25770 0.0 1025128
09:00+22в45555 0.0 1025612
12:00+26в44405 0.0 10251750
15:00+26всв443752 0.0 10232069
18:00+24всв584746 0.0 1023336
21:00+18в486458 0.0 1024136
17 августа, ср
ср1700:00+17вюв37715 0.0 1024116
03:00+16вюв367342 0.0 102397
06:00+16вюв367126 0.0 1023147
09:00+23вюв45475 0.0 1023547
12:00+27вюв44366 0.0 10211955
15:00+27в54346 0.0 10212261
18:00+24всв58450 0.0 1020383
21:00+18в48610 0.0 1021134
18 августа, чт
чт1800:00+17в36620 0.0 102197
03:00+15всв37661 0.0 1021101
06:00+16всв38663 0.0 1022178
09:00+23в68470 0.0 1022674
12:00+27в67355 0.0 10221772
15:00+28в77345 0.0 10212165
18:00+25всв69480 0.0 1022596
21:00+19в411725 0.0 1023221